Wind_Speed
122 118 114 111 109 106 104 103 102 101 101 101 102 102 103 104 104 105 106 107 108 109 110 111 112 113 114 115 116 116 117 118 119 120 121 121 123 124 125 126 127 129 130 132 134 135 137 138 140 143 145 146 147 148 149 149 148 148 147 145 144 142 140 137 132 126 125 126 127 127 128 128 126 126 125 124 122 121 119 117 115 112 111 109 108
120 116 113 110 107 105 104 103 103 103 103 104 104 104 105 105 106 106 107 108 108 109 110 111 112 113 113 114 114 114 115 115 116 117 118 118 119 120 121 122 123 124 125 127 129 131 132 134 136 138 140 142 143 145 147 148 149 149 149 148 147 146 145 142 138 133 129 129 130 129 130 131 130 129 129 128 127 126 124 122 120 118 115 114 112
117 112 109 107 105 105 104 105 105 105 106 106 106 107 107 107 107 107 108 108 108 108 108 109 109 110 110 110 111 111 111 112 112 113 113 114 115 116 117 117 118 119 120 122 123 125 127 128 130 132 135 136 138 140 142 144 146 147 148 149 148 148 148 147 143 138 134 133 133 133 132 134 134 133 133 132 131 130 128 127 125 123 120 118 116
113 109 107 106 105 105 105 105 105 106 106 106 106 106 106 106 106 106 106 105 105 105 104 104 104 105 105 105 106 106 107 107 107 108 109 109 110 111 112 113 114 115 116 117 119 120 122 123 125 127 128 130 131 133 135 137 139 140 142 144 146 147 148 148 147 143 138 135 136 136 136 136 136 136 136 136 135 134 132 131 129 128 125 124 122
110 108 107 107 107 107 107 106 105 105 104 104 103 102 102 101 101 101 101 101 100 100 100 100 100 100 101 101 102 103 103 104 104 105 105 106 106 107 108 109 110 111 112 113 115 116 117 119 120 122 124 124 125 126 128 130 131 132 133 135 138 141 143 145 146 145 142 138 137 139 139 139 139 139 139 139 138 138 136 134 133 132 131 129 127
110 109 109 109 109 108 107 105 104 102 101 100 98 97 97 97 97 97 97 97 97 97 97 98 98 98 99 99 100 101 101 102 103 103 104 104 104 105 105 106 107 108 109 110 112 113 114 115 116 118 120 121 121 121 123 124 125 126 126 128 130 132 134 136 139 141 141 139 139 140 142 142 142 141 142 143 142 141 140 138 137 136 135 134 132
110 110 110 109 108 106 104 102 100 98 97 96 95 95 95 95 95 95 95 95 95 96 96 97 97 98 98 99 99 100 100 101 102 102 102 103 103 103 104 104 105 106 106 108 109 110 111 112 113 115 116 117 118 118 119 121 121 122 122 123 124 125 125 126 129 131 133 134 135 138 141 144 145 145 145 146 146 144 143 142 142 140 139 138 136
110 109 107 105 104 101 100 98 96 95 94 94 94 94 95 95 95 95 95 95 96 96 97 97 98 98 99 99 99 100 100 101 101 102 102 102 102 102 103 104 104 104 105 106 107 108 109 109 110 111 113 114 114 115 116 117 118 118 119 120 121 121 121 121 122 123 125 126 127 130 135 140 144 146 148 149 149 148 147 147 146 144 144 142 140
107 105 103 101 99 98 96 95 95 94 94 94 94 94 95 95 95 95 95 95 95 96 96 97 97 98 98 98 99 99 100 100 101 101 101 101 101 101 102 102 103 103 104 105 106 107 107 107 108 108 109 110 111 112 113 114 114 114 115 117 118 118 119 119 119 120 120 120 121 122 126 130 136 142 147 150 152 152 152 151 150 148 147 147 145
104 101 99 98 97 96 95 95 94 94 94 94 94 94 95 94 94 95 95 95 95 95 95 95 95 96 96 96 97 98 98 99 100 100 100 100 99 99 100 100 101 102 102 103 104 105 106 106 106 107 107 107 108 108 109 110 111 111 111 113 115 115 116 116 117 118 119 119 118 118 119 121 125 133 139 145 150 153 155 155 154 152 151 150 149
101 99 98 97 96 95 95 94 94 94 94 94 94 94 94 94 94 94 94 94 93 93 93 93 93 93 93 94 95 95 96 97 98 98 98 98 97 97 97 98 98 99 99 100 100 101 103 104 105 106 106 106 106 106 106 107 108 108 108 109 111 112 113 113 114 114 116 116 115 115 115 115 118 124 130 135 142 148 153 155 156 156 155 154 152
100 99 97 97 96 95 95 94 94 94 94 94 93 93 93 93 93 93 92 92 91 91 91 91 91 91 91 91 92 92 94 95 96 96 96 96 96 95 95 95 96 97 97 97 98 99 100 101 102 103 103 104 104 104 104 105 105 105 105 105 107 108 109 110 110 111 112 112 112 111 112 113 114 118 123 127 132 138 144 148 152 155 155 156 155
100 99 98 97 96 95 95 94 94 94 94 93 93 93 93 92 92 91 90 90 90 90 89 89 89 89 89 89 89 90 91 92 93 93 93 93 93 93 93 93 94 95 95 96 97 98 98 99 99 100 101 101 101 101 101 102 102 102 102 103 104 105 106 107 107 108 109 109 108 107 108 110 112 115 119 123 126 130 134 138 142 147 151 153 154
100 99 98 97 96 95 95 94 94 94 94 93 93 92 91 90 89 89 88 88 89 89 89 89 89 88 88 88 88 89 90 90 90 90 90 90 90 90 89 90 90 91 93 94 95 96 97 98 98 99 100 100 100 99 98 98 98 98 99 100 102 103 104 105 105 105 105 105 105 104 105 108 109 111 115 119 123 125 128 131 134 138 143 147 149
100 99 98 97 96 95 95 94 94 94 93 92 91 90 89 88 88 87 88 88 89 89 89 89 89 89 88 88 88 89 90 90 89 89 88 88 87 86 86 86 87 88 89 91 92 93 94 96 97 98 99 100 100 99 97 96 96 96 96 97 99 100 102 102 103 103 102 102 101 101 102 105 107 108 111 115 118 121 124 127 130 132 135 137 140
101 99 98 97 96 95 95 94 93 93 92 91 90 89 89 88 87 87 88 88 88 88 88 88 89 89 89 88 88 89 90 90 89 88 87 85 84 82 82 82 83 84 86 87 88 89 91 92 94 95 96 98 99 99 98 97 96 96 96 96 97 98 99 100 100 100 99 98 98 98 99 101 104 106 108 111 113 117 120 123 125 127 129 131 132
101 100 99 98 97 96 95 94 93 92 91 90 90 89 88 87 87 87 87 88 88 88 88 88 88 88 88 88 87 87 88 89 88 86 85 83 80 79 79 79 80 81 83 84 85 86 87 89 90 91 92 94 96 97 98 97 96 96 97 97 97 97 98 98 98 97 95 95 95 96 97 98 100 103 105 108 110 113 116 117 119 121 125 127 127
101 100 99 97 96 96 95 94 93 92 91 90 89 88 87 86 86 86 87 87 87 87 87 86 86 87 87 86 86 86 86 87 87 85 83 81 79 78 78 78 80 81 81 82 82 83 84 85 86 86 87 88 91 93 95 95 95 96 97 97 97 98 98 98 96 94 93 92 93 94 95 96 98 99 102 105 107 110 113 113 113 116 120 122 122
100 99 98 97 96 95 94 94 93 92 91 89 88 87 86 86 86 86 86 86 85 85 85 85 85 86 86 86 85 85 85 86 86 84 82 80 79 79 79 79 80 81 81 81 82 82 82 83 83 83 82 84 86 88 90 91 92 93 94 95 96 98 99 98 96 94 93 92 92 92 93 94 95 97 99 101 104 107 109 111 111 113 115 115 115
99 98 97 96 95 94 93 92 92 91 90 88 88 87 86 85 85 85 85 85 84 84 84 84 84 85 85 85 85 85 84 85 85 83 80 79 79 79 78 79 79 80 80 80 81 81 81 82 82 81 80 81 83 84 86 87 88 89 91 92 94 97 98 97 96 95 94 94 93 92 92 92 93 94 96 99 101 103 105 107 108 110 111 110 110
97 96 95 94 94 93 92 91 90 89 89 88 87 86 86 85 85 85 85 84 84 84 84 83 83 83 84 84 84 84 84 84 83 82 79 78 78 78 77 77 77 77 77 78 78 79 79 80 80 80 79 79 80 81 82 83 84 85 87 89 91 93 95 95 96 96 95 95 94 93 92 92 92 93 94 96 98 100 102 103 104 105 107 107 107
96 95 94 93 92 91 91 90 89 88 88 87 86 86 85 85 85 85 84 84 83 83 83 82 82 82 83 84 84 84 84 82 81 80 78 77 77 77 76 75 75 74 74 75 76 76 77 77 78 78 78 78 78 79 80 81 82 83 85 87 88 90 91 92 94 95 95 95 94 94 93 93 93 93 93 94 95 97 99 99 100 101 102 102 103
95 94 93 92 91 90 89 89 88 87 87 86 86 85 85 85 84 84 83 82 82 81 81 80 80 81 82 83 83 83 82 81 80 78 77 77 77 77 76 75 74 73 72 73 74 74 75 75 76 76 76 75 76 77 78 79 80 81 83 84 86 87 88 89 91 92 93 94 94 94 94 95 94 93 93 93 93 93 94 95 97 98 99 99 100
94 93 93 92 91 89 88 88 87 87 86 86 85 85 84 84 83 82 81 80 80 79 79 79 79 80 81 82 82 82 81 80 79 77 76 77 77 76 75 75 74 72 71 71 72 72 73 74 74 74 74 74 74 75 76 77 78 79 80 82 83 84 86 87 88 89 90 91 92 93 93 94 95 94 94 93 92 91 91 92 93 94 95 96 97
93 92 92 91 90 89 88 88 88 87 86 85 85 84 83 82 82 81 80 79 78 79 79 79 79 79 79 80 81 81 80 78 77 76 76 76 76 75 74 73 72 71 70 70 70 71 72 72 72 72 73 73 73 73 74 76 77 77 78 79 80 81 82 84 85 86 87 88 90 90 91 93 95 95 94 93 92 91 90 90 90 90 91 92 93
92 91 91 90 90 89 88 88 87 86 86 84 83 83 82 81 81 80 79 78 78 78 78 78 78 77 78 78 79 79 79 77 76 75 75 75 75 74 73 72 70 69 68 67 67 68 69 70 70 71 72 73 73 73 74 74 75 76 76 77 77 78 78 79 80 82 84 85 86 87 89 92 94 94 94 92 91 90 90 90 89 89 89 90 90
91 90 90 89 89 89 88 87 87 85 84 83 82 82 81 80 80 80 79 78 78 77 77 76 76 76 76 77 78 78 78 76 74 74 74 74 74 73 72 71 69 68 67 66 65 66 67 67 68 70 70 71 72 73 73 73 74 74 75 75 74 74 75 75 76 77 78 79 81 83 87 90 91 91 91 91 90 90 90 89 89 89 90 89 88
90 89 89 89 89 88 87 86 84 84 83 82 82 81 80 80 79 79 78 77 76 75 75 75 75 75 75 76 77 77 77 75 73 72 72 72 72 72 71 70 68 67 66 65 64 65 65 65 67 68 69 70 71 72 73 72 72 73 73 72 72 72 72 72 72 73 74 75 77 80 83 85 87 87 88 88 88 89 89 89 89 89 90 89 87
89 89 88 88 88 86 85 83 82 82 82 81 81 80 80 80 79 78 77 76 74 74 74 74 74 74 74 75 75 76 75 74 73 72 71 71 71 71 70 69 68 67 66 65 64 64 64 65 66 67 68 69 70 70 71 71 71 71 71 71 71 71 71 70 70 70 71 72 74 76 78 79 81 82 84 85 85 87 88 88 88 88 89 89 87
87 87 87 86 85 84 83 81 81 80 80 80 80 80 80 80 79 77 76 76 75 74 73 72 72 72 72 73 74 74 73 73 72 72 71 70 69 69 68 68 67 66 65 64 64 64 64 64 66 66 67 68 68 69 69 69 69 70 69 69 69 69 70 70 70 70 70 70 71 72 73 74 76 78 79 80 82 83 85 85 85 86 88 89 87
86 86 86 85 83 82 81 80 79 79 79 79 79 80 80 80 79 77 75 74 74 74 74 72 71 70 70 70 72 73 72 71 71 71 70 69 69 68 67 66 65 65 64 64 64 64 64 64 65 66 66 67 67 67 67 68 67 67 67 68 68 68 68 69 70 70 69 69 69 69 69 70 71 73 75 77 78 79 81 81 81 82 85 88 89
85 85 85 84 82 81 80 79 79 78 78 79 79 78 78 78 79 78 76 74 73 73 73 73 71 70 69 68 69 70 71 70 69 69 68 68 68 68 67 66 65 64 64 63 63 63 64 64 65 65 65 65 65 65 65 65 65 65 65 66 67 67 67 68 68 68 68 68 67 67 68 68 69 70 73 74 75 76 77 77 77 78 81 86 88
83 84 84 83 82 81 80 79 79 79 79 79 78 77 76 75 75 77 77 76 74 72 71 71 70 69 68 67 66 67 68 68 68 67 67 66 66 66 65 64 63 63 63 63 63 63 64 64 65 65 64 64 64 64 63 63 62 62 63 63 64 66 66 66 65 65 65 65 65 64 65 66 67 69 71 73 73 73 73 73 72 73 77 82 85
81 82 82 83 83 82 80 80 79 79 80 79 78 77 75 74 73 74 75 76 77 76 74 71 68 66 65 65 65 65 65 65 66 65 65 65 65 64 64 63 62 61 61 62 63 63 64 64 64 64 64 64 63 63 62 61 60 60 60 61 62 63 64 64 63 62 62 62 61 61 62 64 65 67 69 71 72 72 72 71 69 69 72 77 81
79 80 81 81 82 81 81 80 80 80 80 79 78 77 76 75 73 73 73 74 76 78 77 74 69 64 62 62 63 64 64 64 64 63 63 63 63 63 62 62 61 60 60 60 61 62 62 64 64 64 64 64 63 61 60 60 59 59 59 60 60 61 62 62 62 61 59 59 58 58 60 61 63 64 67 69 70 70 70 70 69 67 68 72 75
78 78 79 79 80 80 81 81 80 80 79 79 78 77 76 75 74 73 73 73 75 76 77 76 72 68 64 62 62 63 63 63 62 62 61 61 61 61 61 60 60 60 60 60 60 60 60 61 62 64 65 64 63 62 60 59 59 59 59 59 59 60 60 60 60 59 58 57 56 57 58 60 60 61 63 66 67 68 68 69 69 68 68 68 70
77 77 78 78 79 79 80 80 80 79 79 78 77 77 76 75 74 73 73 74 75 75 75 74 73 71 67 64 63 63 63 62 61 61 60 59 58 58 58 59 59 60 60 60 60 59 59 59 59 61 62 63 63 62 61 59 59 59 59 59 59 59 59 60 60 59 57 56 55 55 57 58 59 60 61 63 64 65 66 67 68 68 68 68 68
77 77 78 78 78 78 78 78 78 78 77 77 76 76 75 75 74 74 74 74 74 74 73 72 71 71 69 66 63 63 62 62 61 60 59 58 57 57 57 57 57 58 59 59 59 59 59 58 58 58 59 60 60 60 60 59 58 58 58 58 58 58 58 59 59 58 57 56 56 55 56 56 58 58 59 60 62 63 63 64 66 67 67 67 67
77 77 78 78 78 77 76 76 75 75 75 75 75 74 74 74 75 74 74 74 73 72 71 70 70 69 69 67 65 63 62 61 60 59 58 57 56 56 56 56 56 57 58 58 58 58 59 58 57 57 57 58 58 58 58 58 57 57 57 57 57 57 57 57 57 57 56 56 55 55 55 55 56 57 58 58 59 60 61 62 64 65 66 66 66
77 78 78 77 76 75 75 74 74 73 73 73 73 72 73 74 74 74 74 73 72 71 70 69 68 67 67 66 65 63 62 61 60 59 57 56 55 55 55 55 55 55 56 56 57 58 58 57 56 55 55 55 56 56 56 56 56 56 56 56 56 56 56 55 56 56 55 54 54 54 54 54 55 55 56 57 58 59 59 60 61 63 64 64 65
77 77 76 75 75 74 74 74 73 72 71 71 71 71 71 72 73 74 73 71 70 69 68 67 66 65 65 65 64 63 62 61 59 58 57 56 55 54 54 54 55 55 55 56 56 56 55 54 53 53 53 53 54 54 54 54 54 54 55 55 55 55 54 54 55 55 54 53 53 52 53 53 53 54 54 55 56 57 58 58 59 61 62 63 63
77 76 75 74 73 74 74 73 72 71 70 70 70 70 70 71 72 72 71 69 68 67 66 65 64 63 63 63 63 62 61 60 59 59 58 57 55 54 54 54 54 55 55 56 56 55 54 52 51 50 51 52 52 52 52 52 52 53 53 54 54 53 52 52 52 53 53 53 52 51 51 52 52 53 53 53 54 55 56 57 58 59 60 61 62
76 75 74 74 73 73 73 73 72 70 69 69 69 69 70 70 71 70 68 67 66 65 64 63 62 62 62 62 61 61 60 59 59 58 58 57 56 55 54 53 53 54 55 55 55 54 53 52 50 49 49 51 51 51 50 50 50 51 51 52 52 52 50 50 50 51 51 51 51 50 50 50 51 51 52 52 53 53 54 55 56 57 58 59 60
75 74 74 73 73 73 72 72 71 70 69 68 68 68 68 69 68 67 66 65 63 63 62 62 61 60 60 60 60 59 59 58 58 57 57 56 56 55 54 53 53 53 53 53 53 53 53 52 50 48 48 50 51 50 49 49 49 49 50 50 50 49 48 48 48 49 49 49 49 49 49 49 49 50 50 51 51 52 53 53 54 55 56 57 58
74 73 73 73 73 72 72 71 70 69 67 67 66 67 67 66 65 64 63 62 61 61 60 60 59 59 58 58 58 58 57 57 56 56 55 55 55 54 54 54 54 53 52 51 51 52 52 51 50 48 48 49 50 49 48 48 48 48 49 49 48 47 46 46 47 47 47 47 47 47 47 47 48 48 49 50 50 51 51 52 53 54 55 56 57
72 72 72 72 72 72 71 70 69 67 66 65 65 65 64 64 63 62 61 60 59 59 58 58 58 57 57 57 56 56 56 55 55 54 54 53 53 53 54 54 54 53 52 51 50 50 50 50 50 48 48 48 48 47 47 46 47 47 48 48 48 47 45 45 45 45 46 46 46 46 46 46 46 47 47 48 49 50 50 51 52 52 53 54 55
71 71 71 71 71 71 70 69 67 65 64 64 64 64 62 61 61 60 59 59 58 57 57 56 56 56 55 55 55 55 54 54 53 52 52 52 52 52 53 53 53 52 51 51 50 49 49 49 48 47 47 47 47 46 45 45 45 46 46 46 46 46 45 44 44 44 44 44 45 45 44 44 45 46 46 47 47 48 49 50 50 51 52 53 54
70 70 70 70 70 70 69 67 65 63 63 63 63 62 61 59 59 58 58 57 57 56 55 55 54 54 54 54 54 54 53 52 51 51 50 50 51 52 52 52 51 50 50 50 50 49 48 48 47 46 45 46 46 46 44 43 44 44 45 45 44 44 44 44 43 43 43 43 43 43 43 43 43 44 45 45 46 47 48 48 49 50 51 51 52
69 69 69 69 69 68 66 64 62 61 62 62 62 60 59 58 57 57 56 56 55 55 54 54 53 53 52 52 52 53 52 51 50 50 49 50 51 51 51 50 49 49 49 49 49 48 47 46 46 45 44 44 45 44 44 43 43 43 43 43 42 42 42 42 42 41 42 42 42 42 42 42 42 42 43 44 44 45 46 47 48 48 49 50 51
68 68 68 67 67 65 64 62 60 60 60 60 60 58 57 56 56 55 55 55 54 54 53 53 52 52 51 51 51 51 51 50 49 49 49 50 50 50 49 48 47 47 48 48 48 47 46 45 45 44 43 42 43 43 43 42 42 42 42 42 41 40 40 40 40 40 40 41 41 41 41 41 41 41 41 42 43 43 44 45 46 47 48 48 49
67 66 66 65 64 63 61 60 58 58 59 59 57 56 55 54 54 54 54 54 54 53 53 52 51 51 50 50 49 49 49 49 48 49 49 50 49 48 47 46 46 46 47 47 47 46 45 44 43 42 41 41 41 42 42 42 41 41 41 40 40 39 38 38 38 38 39 39 40 40 40 40 40 40 40 40 41 42 42 43 44 44 46 47 47
Wind_Direction
304 303 301 300 298 297 295 294 292 291 289 288 286 285 283 282 281 280 279 278 278 277 276 275 274 274 273 272 272 271 271 271 270 270 269 269 268 267 267 266 265 265 264 263 263 262 261 260 260 259 259 259 258 258 258 258 258 258 258 258 258 258 258 258 257 255 252 251 251 252 254 254 254 254 254 254 254 255 255 255 255 255 254 253 253
303 302 301 299 298 297 295 294 292 291 289 288 287 285 284 283 282 281 280 279 278 277 277 276 275 275 274 273 273 272 272 271 271 271 270 270 269 268 268 267 267 266 265 265 264 263 263 262 261 260 260 260 259 259 258 258 258 258 258 258 258 258 259 259 258 257 255 252 251 251 252 253 254 254 254 254 254 254 254 254 254 255 255 254 254
303 301 300 298 297 295 294 293 291 290 289 287 286 285 285 284 283 282 280 279 278 277 276 276 275 275 274 274 273 273 272 272 271 271 270 270 269 269 268 268 267 266 266 265 265 264 263 263 262 261 261 261 260 260 259 259 259 258 258 258 258 258 258 259 259 258 256 254 252 251 251 252 253 253 254 254 254 254 254 254 254 254 254 254 254
302 300 299 297 296 294 293 291 290 289 288 287 286 285 285 284 283 281 280 280 279 278 277 277 276 275 275 275 274 274 273 272 271 271 270 269 269 268 268 268 267 267 266 265 264 264 263 263 262 262 261 261 261 261 260 260 260 259 259 259 258 258 258 258 258 258 257 256 254 253 252 251 252 252 253 253 254 254 254 254 254 254 253 253 253
301 299 298 297 295 294 293 292 291 290 289 288 287 286 285 283 282 282 281 280 280 279 278 278 277 277 276 276 275 275 274 273 272 271 271 270 269 268 268 267 267 267 266 266 265 264 264 263 263 262 262 261 261 260 260 260 260 260 259 259 259 258 258 258 258 258 258 257 256 254 253 252 252 252 252 252 253 253 254 254 254 254 253 253 252
300 299 298 297 296 295 294 293 292 291 289 288 287 286 285 284 283 282 281 281 280 280 279 278 278 277 276 276 275 274 274 273 273 272 272 271 270 269 269 268 267 267 267 266 266 265 265 264 263 263 263 262 262 261 261 260 260 260 260 259 259 258 258 258 257 257 257 256 256 255 254 253 252 251 251 251 252 252 252 253 253 253 253 253 253
299 298 297 296 296 295 294 293 292 291 289 288 287 286 285 284 283 282 282 281 281 280 279 279 278 277 276 276 275 275 274 274 273 273 272 272 271 271 270 269 269 268 267 267 266 266 265 265 264 264 264 263 263 262 262 261 261 260 260 260 260 259 259 258 258 257 257 256 255 254 254 253 253 252 251 251 251 251 251 251 252 252 253 253 253
298 298 297 296 295 294 293 292 291 290 289 288 287 286 285 284 283 283 282 282 281 281 280 279 279 278 278 277 277 276 275 275 274 273 273 272 272 271 270 270 270 269 268 268 267 266 266 265 265 264 264 264 263 263 263 262 262 261 261 261 260 260 260 259 258 258 257 256 255 254 253 253 252 252 251 250 250 250 250 250 250 250 251 252 252
298 297 297 296 295 294 292 291 290 290 288 287 286 286 285 284 284 283 282 282 281 281 280 280 279 279 278 278 277 277 276 275 274 274 273 272 272 271 271 270 270 269 269 269 268 268 267 267 266 265 264 264 264 263 263 263 262 262 262 261 261 260 260 259 259 258 257 257 255 254 253 252 252 251 251 250 250 250 250 250 249 249 249 250 251
298 297 296 295 294 293 292 291 290 289 288 287 286 286 285 284 284 283 283 282 282 281 281 280 280 279 279 278 278 277 276 276 275 274 273 273 272 272 272 271 271 270 270 269 269 269 269 268 268 267 266 265 264 264 263 263 262 262 261 261 261 260 260 259 258 257 257 256 255 254 253 252 252 252 251 250 250 250 250 250 249 249 249 249 249
297 296 295 294 293 292 291 290 290 289 288 287 287 286 286 285 285 284 284 283 283 282 281 280 280 279 278 278 277 277 276 276 275 275 275 274 273 273 273 272 272 271 271 270 270 269 269 269 268 268 267 266 266 265 264 263 263 262 262 261 261 260 260 259 258 258 257 256 255 254 253 252 252 252 252 251 250 250 250 250 250 250 249 249 249
297 296 295 294 293 292 292 291 290 290 289 288 288 287 287 286 285 285 284 284 283 282 281 280 279 279 278 277 277 276 276 275 275 275 275 274 274 274 273 273 273 272 272 272 271 270 269 269 268 268 267 267 266 265 265 264 264 263 263 262 261 261 260 260 259 258 257 257 255 254 254 253 251 251 251 251 250 250 250 250 250 250 250 250 249
297 296 295 294 294 293 293 292 291 291 290 289 288 288 287 287 286 286 285 285 284 283 283 282 281 280 280 279 278 277 276 275 275 274 274 273 273 273 273 272 272 272 272 272 271 271 270 270 270 269 268 267 267 266 265 265 264 264 263 263 262 261 260 260 259 258 258 257 256 255 254 253 251 250 250 250 250 250 250 250 250 250 250 250 250
297 296 296 295 294 294 293 292 292 291 290 289 289 288 288 287 287 286 286 286 286 285 285 284 284 283 282 281 280 279 278 277 276 275 274 273 273 272 272 271 271 270 270 270 269 269 270 270 270 269 269 269 268 267 266 265 265 264 264 263 262 262 261 260 260 259 258 257 256 255 254 254 252 251 250 250 249 249 249 249 249 249 249 249 249
297 297 296 295 295 294 293 292 291 291 290 289 289 289 288 288 288 288 288 288 287 287 286 286 285 284 284 283 282 281 280 279 278 277 275 274 273 273 272 271 270 269 268 268 267 267 267 267 267 268 268 269 269 268 267 266 266 265 264 263 262 262 261 261 260 259 258 258 257 255 254 254 253 252 251 250 250 249 249 248 248 248 249 249 249
298 297 296 295 295 294 293 292 292 291 290 290 290 289 290 290 290 289 289 288 287 287 286 286 286 285 285 284 283 282 282 281 280 279 277 276 276 275 274 272 271 270 269 267 266 266 265 265 265 265 266 267 267 268 268 267 267 266 265 264 263 262 261 261 260 260 259 259 258 256 255 254 253 253 252 251 251 250 249 248 248 248 248 248 248
298 297 296 296 295 294 294 293 292 291 291 290 290 290 290 290 290 289 288 288 287 287 287 286 286 286 285 284 284 283 283 282 281 280 280 279 278 277 276 275 274 272 270 269 268 266 265 265 264 264 264 264 265 266 266 266 266 266 266 265 264 263 262 261 260 260 259 259 258 257 256 254 253 252 252 252 251 251 250 249 248 248 248 247 247
297 297 296 296 295 295 294 293 292 292 291 291 291 291 290 290 290 289 288 288 287 287 287 287 287 286 286 285 285 284 284 283 283 282 281 281 281 280 279 278 276 275 273 272 270 269 267 266 265 264 264 264 263 264 264 264 265 265 265 265 265 264 264 263 262 261 259 258 257 257 256 255 254 252 252 251 251 251 251 251 249 248 247 247 247
297 297 296 296 295 294 293 293 292 292 292 292 291 291 291 290 290 289 289 288 288 288 288 288 288 287 287 286 285 285 284 284 283 283 283 283 283 282 280 279 278 276 275 274 273 272 270 269 268 266 265 264 264 263 263 263 263 263 263 263 264 264 264 263 263 262 261 259 258 256 255 254 253 253 252 251 251 250 251 250 250 249 248 247 246
297 296 295 294 294 293 293 293 292 292 292 292 292 292 292 291 291 290 290 290 290 290 289 289 288 288 287 287 286 286 285 284 284 284 284 284 283 282 280 279 278 277 276 276 275 274 273 272 271 269 267 266 265 264 263 263 262 262 262 262 261 262 263 263 263 263 262 261 259 257 256 254 253 252 252 251 251 250 250 250 250 250 249 248 247
296 295 294 294 293 293 293 293 293 293 293 293 293 292 292 292 292 291 291 291 291 290 290 289 289 288 288 287 287 287 286 286 286 286 286 285 283 282 281 279 278 277 277 276 275 275 274 273 273 271 269 268 266 265 264 263 262 261 261 260 260 260 261 261 262 262 261 261 260 259 258 256 254 253 251 251 251 251 251 250 250 250 250 249 248
295 294 294 294 293 293 293 293 293 293 293 293 293 293 293 292 292 291 291 291 291 290 290 289 289 289 288 288 288 287 287 287 287 286 286 285 284 282 281 280 279 278 277 277 276 275 275 274 273 272 271 269 268 267 265 264 263 262 261 260 259 259 259 259 260 260 260 261 260 260 259 258 256 255 253 251 250 250 250 250 250 250 250 249 249
295 294 294 294 294 294 294 294 293 293 293 293 293 293 292 292 292 291 291 291 290 290 290 289 289 289 289 289 288 288 287 287 287 286 286 285 283 282 281 280 279 279 278 277 277 276 275 274 273 272 271 270 269 268 267 265 264 262 261 260 259 259 259 258 258 259 259 260 260 260 259 259 258 257 255 254 252 251 250 249 249 249 249 249 249
295 294 294 294 294 294 294 294 294 294 293 293 293 293 292 292 292 291 291 291 290 290 290 290 290 290 289 289 288 287 287 287 286 286 285 284 283 282 281 280 280 279 278 277 277 276 275 274 274 273 272 271 269 268 267 266 264 263 262 261 260 259 259 258 258 258 258 258 259 259 259 259 259 258 257 256 255 253 252 250 249 248 248 248 248
295 294 294 294 294 295 294 294 294 294 293 293 293 292 292 292 292 292 291 291 291 291 291 291 290 289 289 288 287 287 287 287 286 286 285 284 282 282 281 280 279 278 278 277 276 276 275 275 274 273 272 271 270 268 267 266 265 264 263 262 261 260 259 259 258 258 258 258 258 258 258 259 259 259 258 258 257 256 254 253 251 249 248 247 247
295 295 295 295 295 295 294 294 294 294 293 293 293 293 293 293 293 292 292 292 292 292 291 291 290 289 288 288 287 287 287 287 287 286 285 284 283 282 281 280 279 278 278 277 276 276 275 275 275 274 273 272 271 270 268 267 266 265 264 263 262 262 261 260 259 258 258 258 258 258 257 257 258 258 258 258 258 257 256 255 253 252 250 248 246
295 294 294 294 294 294 294 294 294 294 294 294 294 293 293 293 293 292 292 292 292 292 291 290 289 289 288 288 287 287 287 287 287 286 286 285 284 284 283 282 281 280 279 278 277 276 275 275 275 274 273 273 272 271 269 268 267 267 266 265 264 264 263 261 260 260 259 258 258 257 256 256 257 257 258 258 258 258 257 256 255 253 252 249 247
294 294 294 294 294 294 294 294 294 294 294 294 293 293 293 292 292 292 292 292 292 291 291 290 289 288 288 287 287 287 288 288 287 287 286 286 285 284 284 283 282 282 281 280 278 277 276 275 274 273 273 272 272 271 270 270 269 268 268 267 266 265 264 263 262 261 260 259 257 257 256 257 257 257 257 257 257 257 257 256 255 254 253 251 249
294 294 294 294 293 293 293 293 293 293 293 293 293 293 292 292 292 292 292 292 291 290 290 289 288 288 288 288 287 288 288 288 288 287 286 286 285 285 284 284 284 283 282 281 280 279 277 276 274 273 272 271 271 270 270 270 270 270 269 269 268 267 266 265 263 261 260 259 258 258 258 258 258 257 257 256 256 255 255 255 255 254 254 253 250
293 293 293 292 292 293 293 293 293 293 293 293 293 293 293 293 293 293 293 293 292 291 290 289 289 289 288 289 289 289 289 289 289 288 288 287 286 285 285 284 284 284 283 282 281 280 279 277 276 275 274 273 272 271 271 271 270 270 269 269 269 268 268 267 266 264 262 261 259 258 258 258 258 258 257 257 256 255 254 253 253 253 253 254 252
293 292 292 292 292 293 293 293 293 293 293 293 293 294 294 294 294 294 293 293 292 292 291 290 290 289 289 289 290 290 290 290 289 289 289 288 287 286 285 285 284 284 283 282 281 280 279 278 276 275 275 274 274 273 273 272 272 271 271 270 269 267 267 266 266 265 265 264 263 261 260 259 258 258 258 257 256 255 254 253 252 251 252 252 253
292 292 292 292 293 293 293 293 293 293 293 293 293 294 294 294 295 295 294 293 292 291 291 291 291 291 290 290 290 290 290 290 290 289 289 288 287 287 286 286 285 285 284 283 282 281 279 278 277 276 276 275 275 274 273 273 273 272 272 271 270 269 267 266 265 265 265 264 264 263 262 261 260 260 259 258 256 255 254 253 252 250 250 251 252
292 292 293 293 294 294 294 294 294 294 294 294 294 294 295 295 295 296 295 294 293 291 290 290 291 291 291 291 291 290 290 290 289 289 289 288 287 286 286 285 285 285 284 283 282 281 280 279 278 278 277 277 276 276 275 274 274 273 272 272 271 270 268 267 266 265 265 264 263 263 262 261 260 260 260 259 258 257 255 253 251 249 249 250 251
293 293 293 294 294 295 295 295 294 294 295 295 295 296 296 296 296 295 295 295 295 293 292 291 291 292 292 292 291 291 290 289 289 289 288 288 287 286 286 285 285 284 283 283 282 281 281 280 279 279 278 277 277 277 277 276 275 275 274 273 272 271 270 269 268 267 265 264 263 262 261 260 259 258 258 259 259 258 257 256 253 249 247 248 250
293 293 293 293 294 294 294 294 294 295 295 295 296 296 296 296 296 295 295 295 295 295 294 293 293 293 293 292 292 291 290 289 289 288 288 287 287 286 285 285 284 283 282 281 281 280 281 281 281 280 279 279 278 278 278 278 277 276 275 274 273 272 272 271 270 269 267 266 265 263 261 260 258 258 257 257 258 258 258 257 256 253 249 248 248
293 293 293 293 293 293 294 294 294 294 295 295 295 296 296 296 296 296 296 295 295 294 294 295 296 296 295 293 292 291 290 290 289 288 288 287 286 286 285 285 284 283 281 280 280 279 279 280 280 280 280 281 281 280 280 279 279 278 277 276 275 274 273 272 272 270 269 267 266 265 263 262 260 258 257 257 257 257 257 257 256 255 253 250 248
293 293 292 292 292 292 293 293 293 294 294 294 295 295 296 296 296 296 296 295 294 294 294 295 296 296 296 295 293 292 291 291 290 289 288 287 286 286 285 284 283 283 281 280 279 279 278 277 277 277 278 279 280 280 280 279 278 278 277 276 275 274 274 273 273 272 271 269 267 265 264 263 261 260 259 258 257 257 256 256 256 256 255 253 250
293 292 292 291 291 291 292 292 292 292 293 294 294 295 296 296 295 295 294 293 293 293 294 295 295 295 295 294 293 292 291 290 290 289 288 288 287 286 285 283 283 282 281 281 280 279 278 277 276 276 277 277 278 279 279 278 278 277 276 275 274 273 273 273 272 272 272 271 269 267 265 264 262 261 260 258 258 257 256 255 255 255 255 254 252
292 292 291 291 291 291 291 291 291 292 292 293 294 295 295 295 294 294 293 292 292 293 294 294 294 294 294 294 293 292 291 290 289 289 288 288 287 286 285 284 283 282 282 282 281 280 279 279 279 278 278 278 278 279 278 278 278 277 276 276 275 274 273 273 272 271 271 270 269 268 267 265 263 262 261 259 258 257 257 256 255 255 254 254 253
291 291 291 291 292 292 292 291 291 292 292 293 294 294 293 293 293 292 291 292 292 293 293 293 294 293 293 293 292 292 291 290 290 289 288 287 286 286 285 284 283 282 281 281 280 280 280 280 280 279 279 279 278 278 278 278 277 277 276 276 275 275 274 273 273 272 271 270 269 268 266 265 264 262 261 260 259 258 257 256 255 255 254 254 253
291 291 291 292 292 292 292 292 292 293 293 293 293 292 292 291 291 290 291 292 292 293 292 293 293 292 292 291 291 291 291 291 290 290 289 288 287 286 285 285 284 282 281 280 279 279 279 279 279 279 278 278 277 277 277 277 277 276 276 275 275 274 274 274 273 272 271 270 269 267 266 265 264 262 261 260 259 258 257 256 255 255 255 254 253
292 292 293 293 293 293 293 293 293 293 293 292 292 291 290 290 289 289 291 292 292 292 292 292 291 291 291 291 291 291 291 291 290 290 289 289 288 287 286 285 284 283 282 281 280 280 280 279 279 279 279 278 277 276 276 276 276 276 276 275 275 274 274 273 272 272 271 270 269 268 266 265 264 263 261 260 258 257 257 256 255 255 255 254 254
293 294 294 294 293 293 293 293 293 293 292 291 291 290 289 289 289 290 291 291 291 291 291 291 290 290 290 290 290 290 290 290 290 290 289 289 289 288 287 286 285 284 283 283 283 283 283 282 281 281 280 279 278 278 277 277 276 276 275 276 276 275 275 274 272 271 270 270 269 268 266 265 264 263 261 260 259 257 256 256 255 254 254 254 254
294 294 294 293 293 293 293 292 292 292 291 290 290 289 289 288 289 290 291 291 291 291 290 290 290 289 289 289 289 289 289 289 289 289 289 289 289 288 287 286 285 283 283 284 284 285 284 284 284 283 282 281 281 280 280 279 278 277 276 276 276 276 275 275 273 272 271 270 269 268 266 265 264 262 261 260 259 258 256 255 254 254 253 253 253
294 293 293 293 293 293 292 291 291 291 291 290 289 289 288 289 289 290 290 290 290 290 289 289 289 288 288 288 288 288 288 288 288 288 288 288 288 288 287 286 285 284 284 284 284 284 285 285 284 284 283 282 282 282 282 281 281 279 278 278 277 276 275 274 273 273 272 270 269 267 266 265 264 262 261 260 259 258 256 255 254 254 253 253 252
293 293 293 292 292 291 291 290 291 291 291 290 289 288 289 289 290 290 290 290 289 289 288 288 288 288 287 287 287 287 286 286 286 287 287 287 286 286 285 285 285 285 285 285 284 284 283 283 283 283 283 282 282 282 281 281 281 280 279 279 278 277 276 274 273 272 271 270 269 268 266 265 264 262 261 260 259 258 257 255 254 254 253 252 252
293 292 292 291 291 290 290 290 291 291 291 290 289 289 289 289 290 290 289 289 288 288 287 287 287 287 286 286 286 285 285 285 286 286 285 285 284 284 283 283 284 285 285 285 284 284 283 283 283 283 283 283 283 282 281 281 280 279 278 278 278 278 277 276 274 273 272 271 270 268 267 265 264 263 261 260 259 258 257 256 255 254 253 252 252
292 291 291 290 290 290 290 291 291 291 290 289 289 289 290 290 290 289 288 288 287 287 287 286 286 286 285 285 285 285 285 285 285 284 284 283 282 282 282 283 284 284 284 284 284 284 284 284 284 283 283 283 283 283 282 281 279 278 278 277 277 277 276 276 275 274 273 272 270 269 268 266 264 263 262 261 259 258 257 256 255 254 253 252 252
291 290 290 289 289 289 290 290 290 290 290 289 289 289 290 289 289 288 287 287 287 287 286 286 285 285 285 284 284 284 285 285 284 284 283 282 281 281 282 283 284 284 283 283 283 283 284 284 284 284 283 283 282 282 282 281 280 279 278 277 277 276 275 275 275 274 273 272 271 270 269 267 265 263 262 261 260 258 257 256 255 254 253 253 252
290 289 289 289 289 289 289 290 290 290 289 288 289 289 289 289 288 287 287 286 286 286 286 285 285 284 284 284 284 284 284 284 284 283 282 281 281 282 283 284 283 283 283 283 283 283 283 284 284 284 283 283 283 282 282 281 280 279 278 278 277 276 276 275 275 274 273 272 272 271 270 268 266 264 263 261 261 259 257 256 255 254 253 253 252
289 289 289 289 289 289 289 290 290 289 288 288 288 288 288 288 287 286 286 286 286 285 285 285 284 284 284 283 283 283 283 283 283 282 281 281 282 283 283 283 283 283 283 283 283 284 284 284 284 284 284 283 282 281 281 280 279 279 278 278 278 278 277 276 275 274 273 272 272 271 270 269 268 266 264 262 261 260 258 257 255 254 253 252 252
Height
10438 10433 10429 10425 10421 10418 10414 10411 10408 10404 10401 10397 10393 10390 10386 10383 10379 10376 10372 10369 10366 10363 10360 10357 10354 10351 10348 10346 10345 10344 10343 10342 10341 10341 10342 10341 10341 10340 10340 10340 10340 10341 10341 10340 10340 10341 10344 10347 10348 10347 10347 10351 10354 10354 10356 10358 10361 10365 10369 10374 10379 10384 10390 10397 10411 10432 10441 10435 10434 10437 10433 10433 10440 10441 10440 10444 10447 10449 10455 10462 10466 10471 10475 10478 10480
10422 10417 10412 10407 10403 10400 10396 10392 10388 10385 10381 10377 10373 10370 10366 10363 10359 10356 10353 10349 10346 10343 10340 10336 10333 10331 10329 10327 10326 10324 10323 10322 10322 10321 10321 10321 10321 10320 10320 10321 10321 10321 10321 10321 10320 10319 10321 10324 10325 10325 10325 10328 10332 10333 10335 10337 10339 10343 10347 10351 10358 10363 10366 10371 10383 10403 10420 10421 10418 10422 10421 10416 10420 10425 10423 10426 10431 10432 10436 10443 10447 10453 10458 10461 10465
10405 10400 10395 10391 10387 10382 10378 10374 10370 10366 10362 10357 10354 10351 10347 10344 10340 10336 10332 10329 10326 10323 10320 10318 10315 10312 10310 10309 10307 10306 10304 10303 10302 10302 10301 10301 10300 10300 10299 10299 10300 10301 10301 10300 10300 10299 10300 10302 10303 10302 10303 10307 10310 10312 10313 10316 10318 10321 10326 10330 10335 10341 10344 10346 10356 10372 10392 10402 10402 10405 10408 10402 10402 10408 10407 10407 10413 10415 10418 10423 10427 10434 10440 10444 10448
10386 10382 10378 10373 10369 10364 10360 10357 10353 10349 10344 10340 10336 10332 10328 10324 10320 10316 10312 10309 10306 10304 10301 10299 10296 10294 10292 10290 10289 10287 10285 10285 10284 10282 10282 10281 10281 10280 10279 10278 10278 10279 10280 10280 10279 10279 10279 10281 10281 10280 10281 10285 10290 10291 10291 10294 10297 10300 10306 10310 10312 10318 10323 10325 10331 10344 10361 10378 10385 10386 10389 10389 10388 10391 10391 10390 10394 10397 10400 10406 10408 10413 10420 10425 10430
10368 10363 10359 10354 10350 10345 10340 10337 10334 10330 10326 10321 10317 10314 10310 10305 10301 10297 10293 10291 10288 10286 10283 10281 10279 10277 10275 10273 10271 10269 10266 10265 10264 10263 10262 10262 10262 10262 10261 10260 10259 10258 10259 10259 10259 10259 10259 10261 10261 10260 10260 10264 10269 10271 10270 10272 10276 10280 10285 10290 10291 10294 10300 10304 10309 10318 10331 10349 10363 10366 10367 10372 10374 10374 10373 10373 10375 10378 10382 10388 10391 10393 10399 10404 10410
10350 10345 10340 10336 10331 10326 10321 10318 10315 10311 10307 10303 10299 10296 10292 10288 10283 10280 10277 10275 10272 10270 10267 10265 10262 10260 10258 10256 10254 10251 10249 10247 10246 10245 10244 10244 10244 10244 10243 10243 10243 10242 10241 10240 10239 10240 10240 10242 10242 10241 10241 10244 10248 10252 10252 10252 10256 10260 10264 10268 10270 10271 10277 10284 10288 10294 10304 10320 10336 10344 10346 10351 10355 10358 10357 10353 10354 10361 10365 10368 10372 10374 10377 10382 10387
10334 10329 10324 10319 10313 10309 10304 10301 10297 10294 10290 10286 10282 10278 10274 10271 10267 10264 10262 10260 10257 10254 10251 10249 10246 10244 10242 10240 10237 10235 10233 10231 10229 10228 10228 10227 10227 10226 10226 10225 10225 10225 10224 10223 10221 10221 10221 10223 10224 10223 10223 10225 10229 10231 10233 10234 10236 10241 10244 10247 10249 10252 10257 10264 10268 10272 10280 10292 10307 10319 10324 10327 10331 10337 10340 10333 10331 10341 10348 10348 10350 10353 10356 10361 10367
10318 10313 10308 10303 10297 10293 10289 10285 10281 10278 10275 10270 10266 10262 10258 10255 10252 10249 10247 10245 10242 10239 10236 10233 10230 10228 10226 10224 10221 10219 10217 10216 10214 10212 10211 10211 10210 10210 10209 10208 10208 10207 10206 10205 10203 10203 10203 10204 10205 10206 10206 10207 10210 10212 10213 10215 10218 10222 10226 10227 10229 10233 10238 10244 10249 10252 10258 10267 10279 10291 10299 10304 10307 10313 10318 10314 10311 10320 10327 10325 10327 10335 10337 10340 10347
10302 10297 10292 10287 10282 10278 10274 10270 10267 10263 10260 10255 10251 10247 10243 10240 10237 10235 10232 10230 10227 10225 10222 10219 10216 10213 10211 10208 10206 10203 10201 10199 10196 10195 10195 10195 10194 10194 10193 10192 10191 10191 10190 10189 10186 10185 10185 10187 10187 10188 10188 10189 10192 10193 10195 10197 10199 10204 10208 10208 10208 10213 10219 10223 10228 10232 10236 10243 10253 10264 10271 10278 10284 10288 10292 10294 10293 10298 10302 10299 10305 10318 10320 10317 10324
10286 10282 10277 10272 10268 10264 10260 10256 10253 10249 10245 10240 10236 10232 10229 10226 10223 10220 10217 10214 10212 10210 10207 10204 10201 10198 10196 10193 10190 10187 10184 10181 10179 10178 10177 10178 10179 10179 10178 10176 10175 10174 10174 10174 10173 10170 10168 10169 10169 10169 10170 10172 10174 10175 10176 10178 10180 10184 10189 10190 10189 10192 10197 10202 10206 10210 10213 10219 10229 10239 10247 10256 10264 10265 10267 10273 10274 10274 10277 10277 10281 10294 10300 10297 10305
10271 10267 10262 10258 10253 10249 10246 10242 10238 10234 10229 10225 10221 10217 10214 10211 10207 10204 10202 10199 10197 10194 10191 10188 10186 10183 10181 10178 10175 10172 10168 10164 10162 10161 10161 10161 10162 10164 10163 10161 10159 10158 10158 10158 10158 10156 10154 10152 10152 10151 10152 10153 10155 10157 10158 10159 10161 10165 10169 10172 10172 10173 10176 10180 10184 10188 10192 10197 10207 10218 10225 10236 10245 10244 10243 10250 10252 10249 10252 10256 10258 10267 10276 10278 10286
10255 10251 10247 10242 10238 10234 10230 10226 10222 10218 10213 10209 10205 10202 10198 10195 10192 10189 10186 10183 10181 10177 10175 10172 10170 10168 10166 10163 10161 10157 10153 10149 10147 10146 10147 10146 10146 10148 10148 10147 10145 10143 10142 10142 10141 10140 10138 10137 10135 10134 10134 10135 10136 10139 10140 10142 10144 10147 10150 10153 10154 10156 10157 10160 10164 10168 10171 10177 10187 10198 10206 10213 10220 10221 10221 10224 10225 10224 10227 10234 10238 10244 10252 10256 10265
10239 10235 10230 10226 10222 10218 10214 10210 10205 10201 10197 10193 10190 10186 10183 10180 10177 10174 10171 10167 10164 10160 10158 10156 10153 10151 10150 10147 10145 10142 10137 10134 10133 10133 10133 10131 10131 10133 10134 10133 10132 10130 10128 10126 10125 10123 10122 10121 10120 10118 10117 10117 10118 10121 10123 10126 10128 10131 10133 10135 10136 10137 10138 10140 10145 10149 10153 10158 10167 10178 10186 10188 10192 10199 10200 10198 10199 10202 10207 10213 10218 10222 10227 10234 10244
10223 10218 10214 10210 10206 10202 10198 10194 10190 10185 10181 10178 10175 10171 10168 10165 10162 10159 10156 10152 10148 10145 10142 10139 10137 10134 10133 10131 10128 10125 10120 10118 10117 10118 10117 10116 10116 10118 10120 10119 10118 10116 10113 10111 10109 10108 10107 10106 10105 10103 10100 10100 10102 10104 10107 10110 10112 10114 10116 10116 10117 10117 10118 10121 10125 10129 10134 10141 10148 10159 10166 10165 10168 10177 10179 10175 10176 10182 10186 10191 10195 10198 10204 10212 10222
10207 10203 10199 10194 10190 10186 10183 10179 10174 10170 10166 10163 10160 10157 10154 10151 10148 10145 10142 10138 10134 10130 10127 10124 10121 10118 10116 10115 10112 10108 10103 10100 10101 10101 10100 10101 10102 10104 10105 10105 10103 10101 10098 10095 10094 10093 10092 10091 10089 10088 10086 10085 10085 10087 10090 10094 10096 10098 10099 10098 10098 10099 10100 10102 10106 10109 10116 10123 10131 10140 10146 10145 10147 10153 10156 10155 10156 10160 10163 10166 10172 10177 10182 10190 10201
10191 10187 10183 10178 10175 10171 10167 10163 10159 10155 10152 10148 10145 10142 10139 10136 10134 10131 10127 10123 10119 10116 10113 10110 10107 10104 10101 10099 10096 10093 10087 10084 10084 10085 10084 10085 10088 10089 10090 10089 10087 10084 10080 10079 10079 10078 10076 10075 10074 10074 10074 10073 10071 10071 10073 10077 10079 10081 10081 10081 10081 10082 10082 10084 10087 10092 10100 10106 10112 10119 10125 10128 10129 10130 10134 10136 10136 10137 10138 10142 10151 10159 10163 10170 10180
10176 10171 10167 10163 10159 10156 10152 10148 10144 10140 10137 10134 10131 10129 10126 10123 10121 10117 10114 10110 10105 10102 10099 10096 10093 10090 10086 10083 10081 10078 10073 10068 10068 10069 10069 10071 10073 10074 10074 10072 10069 10066 10063 10062 10062 10061 10060 10059 10059 10061 10062 10060 10059 10058 10058 10061 10064 10064 10064 10063 10064 10065 10065 10067 10071 10077 10084 10090 10094 10098 10103 10108 10110 10111 10113 10115 10116 10116 10115 10121 10134 10140 10141 10147 10158
10161 10156 10152 10148 10144 10140 10136 10132 10129 10126 10123 10121 10118 10115 10112 10109 10107 10103 10100 10096 10092 10088 10086 10083 10079 10075 10071 10068 10066 10064 10059 10054 10052 10053 10055 10056 10059 10059 10058 10056 10052 10049 10047 10046 10045 10044 10044 10043 10044 10047 10049 10048 10046 10045 10044 10046 10048 10049 10049 10048 10048 10048 10048 10049 10054 10061 10067 10072 10075 10079 10082 10086 10088 10091 10093 10095 10096 10096 10095 10103 10115 10116 10116 10126 10140
10148 10142 10138 10134 10129 10126 10122 10118 10115 10112 10109 10107 10104 10101 10098 10095 10092 10089 10085 10082 10079 10075 10071 10069 10065 10060 10055 10053 10050 10048 10046 10041 10037 10039 10042 10043 10043 10043 10042 10040 10036 10033 10032 10031 10029 10028 10028 10027 10028 10032 10035 10034 10032 10031 10030 10031 10034 10035 10035 10035 10034 10032 10030 10033 10039 10044 10049 10052 10056 10059 10062 10065 10068 10071 10074 10075 10077 10078 10077 10084 10092 10092 10095 10108 10122
10134 10129 10124 10120 10115 10112 10109 10105 10102 10098 10095 10093 10089 10086 10084 10081 10077 10074 10070 10068 10065 10061 10058 10055 10051 10046 10041 10038 10035 10033 10031 10028 10024 10026 10029 10030 10028 10027 10026 10024 10022 10020 10018 10016 10014 10013 10012 10012 10013 10015 10018 10018 10017 10016 10016 10018 10020 10021 10020 10020 10019 10016 10015 10019 10024 10027 10030 10032 10036 10039 10043 10046 10049 10053 10055 10056 10058 10059 10060 10065 10072 10074 10078 10090 10102
10120 10115 10111 10106 10102 10099 10095 10092 10088 10085 10081 10079 10075 10071 10069 10066 10063 10059 10056 10054 10051 10047 10044 10041 10038 10033 10027 10023 10021 10018 10016 10015 10013 10013 10015 10015 10012 10011 10010 10009 10008 10007 10005 10003 10001 10000 9999 9998 9998 9998 10000 10002 10002 10002 10003 10003 10005 10006 10005 10004 10004 10003 10003 10006 10008 10009 10012 10015 10017 10021 10025 10028 10030 10033 10036 10039 10040 10041 10044 10049 10055 10058 10062 10072 10083
10106 10101 10097 10093 10089 10086 10083 10079 10076 10072 10069 10065 10062 10058 10055 10053 10050 10046 10043 10041 10038 10034 10031 10027 10024 10020 10014 10010 10007 10004 10002 10001 10001 10001 10001 9999 9997 9995 9995 9995 9995 9995 9994 9991 9989 9987 9986 9985 9983 9982 9984 9986 9987 9987 9988 9989 9989 9990 9989 9988 9989 9990 9991 9993 9993 9993 9996 9998 10001 10004 10006 10007 10010 10014 10018 10021 10023 10025 10028 10034 10039 10042 10047 10055 10063
10092 10087 10083 10079 10076 10073 10070 10067 10063 10060 10056 10053 10050 10046 10043 10040 10037 10033 10031 10029 10026 10022 10018 10015 10012 10008 10002 9997 9994 9992 9990 9988 9988 9989 9988 9985 9982 9981 9981 9981 9981 9982 9982 9979 9977 9975 9972 9970 9970 9969 9970 9972 9973 9973 9973 9973 9973 9974 9974 9974 9975 9975 9976 9979 9979 9979 9981 9984 9985 9987 9988 9988 9992 9996 9999 10002 10006 10009 10013 10018 10022 10025 10030 10038 10045
10079 10074 10070 10067 10064 10061 10057 10054 10050 10047 10043 10040 10037 10034 10030 10027 10024 10020 10018 10016 10013 10010 10006 10003 10000 9996 9991 9986 9981 9979 9978 9977 9976 9976 9975 9972 9969 9968 9968 9968 9968 9969 9970 9968 9965 9962 9959 9957 9957 9957 9957 9957 9958 9958 9958 9957 9958 9959 9959 9959 9960 9962 9963 9965 9966 9967 9969 9970 9970 9972 9973 9973 9974 9978 9981 9984 9989 9993 9997 10001 10005 10009 10015 10022 10028
10066 10061 10057 10054 10051 10048 10044 10040 10037 10034 10030 10027 10025 10021 10018 10014 10010 10007 10005 10003 10000 9997 9993 9990 9988 9984 9980 9975 9970 9967 9966 9965 9965 9963 9961 9959 9956 9955 9955 9955 9955 9957 9957 9956 9953 9950 9947 9945 9945 9945 9944 9942 9943 9944 9943 9942 9943 9944 9944 9945 9946 9948 9950 9951 9953 9954 9956 9956 9956 9959 9960 9958 9958 9961 9964 9967 9972 9977 9980 9984 9989 9994 10000 10006 10012
10053 10049 10045 10041 10038 10035 10031 10027 10024 10021 10017 10014 10011 10007 10004 10001 9997 9994 9992 9990 9988 9985 9981 9978 9975 9972 9968 9964 9960 9957 9954 9954 9954 9952 9948 9946 9944 9942 9942 9942 9943 9944 9944 9943 9942 9938 9936 9934 9933 9931 9930 9929 9929 9930 9929 9929 9929 9929 9930 9931 9933 9935 9937 9939 9941 9941 9942 9944 9945 9947 9947 9944 9942 9945 9948 9952 9957 9961 9963 9966 9972 9978 9982 9987 9994
10040 10036 10032 10029 10026 10022 10019 10015 10011 10007 10004 10001 9998 9994 9991 9988 9985 9982 9980 9978 9976 9973 9970 9966 9963 9960 9957 9952 9948 9945 9943 9943 9943 9941 9937 9934 9932 9930 9929 9928 9929 9930 9930 9930 9930 9927 9925 9924 9921 9919 9917 9916 9916 9916 9915 9915 9916 9916 9916 9918 9920 9922 9923 9925 9927 9928 9930 9932 9933 9933 9931 9929 9929 9932 9935 9938 9943 9945 9946 9950 9956 9961 9963 9968 9978
10028 10024 10020 10017 10013 10009 10006 10003 9999 9995 9991 9988 9985 9982 9978 9976 9973 9970 9968 9966 9964 9961 9958 9955 9951 9949 9946 9942 9938 9934 9931 9931 9931 9929 9926 9923 9920 9918 9917 9916 9917 9917 9916 9917 9916 9915 9914 9912 9910 9907 9906 9905 9903 9903 9903 9903 9903 9903 9904 9905 9907 9908 9909 9911 9914 9915 9916 9918 9918 9918 9916 9916 9918 9920 9922 9925 9928 9929 9930 9934 9940 9944 9946 9950 9962
10016 10012 10009 10005 10001 9998 9994 9991 9988 9984 9980 9976 9973 9969 9966 9964 9961 9958 9956 9954 9953 9950 9947 9944 9940 9938 9935 9930 9927 9924 9921 9919 9918 9917 9915 9912 9910 9908 9906 9905 9905 9904 9903 9904 9903 9902 9901 9899 9897 9895 9894 9893 9892 9891 9891 9892 9892 9892 9892 9893 9894 9894 9895 9897 9899 9901 9902 9904 9904 9904 9904 9904 9905 9907 9908 9912 9914 9914 9916 9919 9924 9928 9930 9934 9944
10005 10001 9998 9994 9990 9987 9983 9980 9977 9973 9969 9965 9961 9957 9953 9950 9948 9947 9944 9941 9938 9937 9935 9933 9930 9927 9924 9920 9915 9913 9911 9909 9906 9904 9902 9900 9898 9897 9896 9895 9894 9893 9892 9891 9890 9889 9889 9887 9884 9883 9882 9881 9880 9880 9880 9881 9881 9881 9881 9882 9882 9883 9882 9882 9884 9886 9888 9889 9891 9892 9892 9893 9894 9894 9895 9897 9899 9899 9901 9905 9909 9913 9916 9919 9925
9993 9988 9985 9982 9979 9976 9972 9969 9966 9962 9958 9954 9950 9946 9942 9937 9934 9934 9933 9931 9927 9923 9921 9920 9919 9917 9914 9911 9906 9902 9900 9899 9896 9892 9890 9888 9885 9884 9883 9883 9883 9881 9880 9880 9878 9877 9876 9874 9872 9871 9871 9870 9869 9869 9869 9869 9870 9870 9870 9870 9870 9871 9871 9870 9871 9873 9874 9875 9877 9879 9880 9881 9882 9881 9881 9883 9885 9885 9887 9891 9895 9900 9902 9903 9907
9981 9976 9972 9969 9967 9964 9960 9957 9953 9950 9947 9943 9940 9937 9933 9927 9921 9917 9917 9918 9917 9914 9910 9907 9906 9905 9903 9901 9899 9894 9890 9887 9885 9882 9880 9877 9874 9872 9871 9871 9871 9870 9868 9868 9866 9865 9864 9862 9860 9860 9860 9859 9859 9858 9858 9859 9859 9859 9859 9858 9857 9857 9858 9859 9860 9862 9863 9863 9865 9866 9867 9868 9869 9869 9868 9869 9871 9872 9874 9878 9882 9886 9888 9889 9892
9969 9963 9959 9956 9954 9951 9948 9945 9941 9938 9935 9931 9928 9926 9923 9920 9914 9907 9901 9899 9900 9901 9901 9898 9896 9894 9892 9889 9888 9885 9881 9878 9874 9871 9869 9867 9864 9862 9860 9860 9861 9859 9857 9855 9854 9853 9852 9850 9849 9849 9848 9848 9847 9847 9847 9848 9849 9849 9848 9847 9846 9844 9844 9846 9849 9850 9851 9852 9853 9855 9855 9855 9856 9856 9855 9856 9858 9859 9861 9864 9869 9873 9875 9875 9877
9957 9952 9948 9944 9941 9938 9935 9933 9929 9926 9922 9920 9917 9915 9912 9909 9906 9901 9894 9887 9882 9881 9883 9886 9886 9885 9882 9879 9876 9873 9871 9868 9865 9862 9859 9856 9854 9852 9850 9849 9850 9850 9847 9845 9842 9841 9840 9838 9838 9838 9837 9837 9837 9837 9836 9837 9838 9838 9837 9836 9835 9833 9833 9833 9836 9838 9839 9840 9842 9843 9844 9843 9844 9844 9844 9844 9845 9847 9848 9851 9856 9860 9862 9863 9865
9946 9941 9937 9933 9929 9926 9923 9921 9918 9914 9911 9908 9906 9904 9901 9898 9895 9892 9887 9881 9874 9868 9865 9867 9871 9873 9873 9870 9866 9862 9860 9858 9855 9853 9850 9847 9844 9842 9841 9840 9839 9839 9838 9836 9833 9831 9830 9827 9826 9825 9825 9825 9826 9827 9827 9827 9827 9827 9826 9825 9824 9824 9823 9822 9823 9825 9827 9828 9830 9831 9831 9831 9832 9833 9833 9833 9834 9835 9837 9839 9842 9846 9849 9851 9853
9935 9930 9927 9923 9919 9915 9912 9909 9906 9904 9901 9898 9895 9893 9890 9887 9884 9881 9877 9872 9867 9861 9856 9853 9854 9856 9858 9859 9855 9851 9848 9847 9845 9843 9841 9838 9835 9833 9831 9829 9828 9827 9827 9826 9824 9823 9822 9820 9817 9815 9814 9814 9814 9815 9816 9816 9816 9816 9815 9814 9814 9813 9813 9812 9812 9814 9815 9817 9818 9819 9819 9819 9820 9821 9822 9822 9823 9824 9826 9828 9830 9832 9836 9839 9842
9923 9919 9916 9912 9908 9905 9902 9899 9896 9893 9891 9888 9885 9882 9878 9875 9872 9870 9866 9861 9857 9853 9849 9846 9843 9842 9843 9845 9844 9840 9837 9835 9834 9832 9831 9829 9827 9825 9823 9820 9818 9816 9816 9815 9814 9813 9813 9812 9810 9808 9806 9805 9805 9805 9805 9806 9806 9805 9805 9804 9804 9803 9803 9802 9802 9803 9804 9806 9807 9808 9808 9807 9808 9809 9810 9811 9812 9814 9816 9817 9819 9820 9823 9826 9829
9912 9908 9904 9901 9898 9895 9892 9889 9886 9884 9881 9878 9874 9871 9867 9864 9860 9858 9855 9851 9847 9844 9841 9839 9836 9832 9830 9831 9831 9829 9827 9825 9823 9822 9821 9819 9817 9815 9814 9812 9810 9808 9805 9804 9803 9803 9802 9801 9801 9801 9799 9798 9797 9797 9796 9796 9796 9796 9795 9794 9794 9794 9794 9793 9793 9793 9794 9795 9796 9796 9797 9797 9797 9798 9799 9800 9802 9803 9805 9806 9808 9809 9811 9813 9816
9900 9897 9893 9890 9887 9885 9882 9879 9876 9874 9871 9868 9864 9861 9857 9853 9849 9846 9843 9840 9837 9835 9833 9830 9827 9824 9820 9819 9819 9818 9816 9815 9813 9812 9811 9810 9808 9806 9804 9802 9801 9799 9797 9795 9793 9792 9791 9791 9791 9791 9791 9789 9788 9788 9787 9787 9786 9786 9785 9784 9784 9784 9784 9784 9783 9784 9784 9785 9785 9786 9786 9787 9787 9788 9789 9790 9791 9793 9794 9796 9797 9798 9800 9802 9805
9889 9885 9882 9879 9876 9874 9871 9868 9865 9863 9861 9857 9854 9852 9847 9843 9838 9834 9832 9830 9828 9826 9824 9821 9818 9815 9812 9809 9808 9806 9805 9805 9803 9802 9801 9801 9799 9798 9796 9793 9792 9790 9789 9787 9785 9783 9783 9783 9783 9782 9782 9781 9780 9779 9778 9777 9777 9776 9776 9775 9774 9774 9774 9774 9774 9774 9775 9775 9776 9776 9776 9777 9777 9778 9778 9780 9781 9782 9784 9785 9786 9788 9789 9791 9794
9877 9874 9871 9869 9866 9862 9859 9856 9854 9852 9850 9846 9844 9841 9837 9833 9828 9824 9822 9821 9819 9816 9814 9812 9810 9806 9803 9800 9798 9796 9795 9794 9793 9792 9791 9790 9789 9789 9787 9785 9782 9781 9779 9778 9777 9776 9775 9775 9775 9774 9773 9772 9771 9770 9769 9768 9768 9767 9766 9765 9765 9765 9765 9765 9764 9764 9764 9765 9766 9766 9767 9767 9767 9768 9769 9770 9771 9772 9773 9775 9776 9778 9779 9781 9783
9865 9862 9860 9858 9855 9851 9848 9845 9843 9841 9838 9835 9833 9829 9825 9822 9818 9815 9813 9812 9809 9807 9804 9802 9800 9797 9794 9791 9789 9787 9785 9784 9783 9781 9780 9779 9779 9779 9778 9776 9773 9771 9769 9768 9767 9767 9767 9767 9767 9766 9764 9763 9762 9761 9761 9760 9759 9758 9757 9756 9755 9755 9756 9756 9755 9754 9754 9755 9755 9756 9757 9757 9758 9758 9759 9760 9761 9762 9764 9765 9767 9768 9769 9771 9773
9853 9850 9848 9846 9843 9840 9837 9834 9832 9829 9827 9824 9821 9818 9815 9811 9808 9806 9804 9802 9800 9797 9795 9792 9791 9788 9785 9783 9780 9778 9777 9775 9773 9772 9770 9769 9768 9768 9768 9767 9765 9762 9760 9759 9758 9757 9756 9757 9757 9757 9755 9753 9752 9752 9752 9751 9750 9749 9748 9747 9747 9746 9747 9747 9746 9745 9745 9745 9746 9746 9747 9748 9748 9749 9750 9751 9752 9753 9754 9756 9757 9758 9760 9761 9763
9842 9839 9836 9834 9831 9829 9826 9823 9820 9818 9816 9813 9810 9807 9804 9801 9798 9797 9795 9792 9790 9788 9785 9783 9781 9779 9777 9774 9772 9770 9769 9767 9765 9764 9762 9760 9759 9758 9758 9757 9756 9754 9753 9752 9750 9748 9747 9747 9748 9748 9746 9744 9742 9742 9742 9742 9741 9741 9740 9739 9739 9738 9738 9738 9737 9736 9736 9736 9737 9737 9737 9738 9739 9740 9740 9741 9742 9744 9745 9746 9748 9749 9750 9752 9754
9831 9828 9825 9822 9820 9817 9814 9812 9810 9807 9805 9802 9799 9796 9794 9791 9789 9787 9785 9783 9781 9779 9776 9774 9772 9770 9768 9766 9764 9762 9761 9759 9757 9756 9754 9753 9751 9750 9748 9747 9746 9745 9745 9744 9743 9741 9740 9738 9738 9739 9737 9736 9734 9734 9733 9733 9732 9732 9731 9730 9730 9730 9730 9730 9729 9728 9727 9727 9728 9728 9729 9729 9730 9731 9732 9732 9733 9734 9736 9737 9738 9740 9741 9743 9744
9820 9817 9814 9811 9808 9805 9803 9801 9799 9797 9794 9791 9788 9786 9784 9782 9780 9778 9776 9774 9771 9769 9767 9765 9763 9761 9760 9758 9756 9754 9753 9751 9750 9748 9747 9746 9744 9742 9740 9738 9737 9736 9736 9736 9735 9734 9733 9731 9730 9730 9729 9727 9727 9726 9726 9725 9724 9723 9722 9722 9721 9721 9721 9721 9721 9720 9719 9719 9719 9720 9720 9721 9721 9722 9723 9724 9724 9725 9727 9728 9729 9731 9732 9734 9736
9809 9806 9803 9800 9797 9794 9792 9790 9789 9786 9783 9780 9777 9775 9774 9772 9770 9768 9766 9764 9762 9760 9759 9757 9755 9753 9751 9749 9748 9746 9745 9743 9742 9741 9740 9738 9737 9734 9732 9731 9730 9729 9728 9727 9726 9726 9725 9724 9723 9723 9721 9719 9718 9718 9718 9718 9716 9715 9715 9714 9713 9713 9713 9713 9712 9712 9712 9711 9711 9711 9712 9713 9713 9714 9714 9715 9716 9717 9718 9719 9721 9722 9723 9725 9727
9798 9795 9792 9789 9786 9783 9782 9780 9778 9776 9773 9770 9767 9765 9764 9763 9761 9758 9756 9754 9753 9751 9750 9748 9746 9745 9743 9741 9739 9738 9737 9736 9735 9734 9733 9731 9729 9727 9725 9725 9724 9722 9721 9719 9718 9718 9717 9716 9716 9715 9714 9712 9711 9710 9710 9710 9709 9708 9707 9707 9706 9706 9705 9705 9704 9704 9704 9704 9703 9703 9704 9705 9705 9706 9706 9707 9708 9709 9710 9711 9712 9713 9715 9717 9719
9787 9784 9781 9778 9775 9773 9772 9770 9768 9766 9763 9760 9757 9756 9754 9753 9751 9749 9747 9745 9744 9742 9741 9739 9738 9736 9735 9733 9731 9730 9729 9728 9727 9726 9725 9723 9721 9719 9719 9718 9717 9715 9713 9712 9711 9710 9710 9709 9708 9708 9707 9705 9704 9702 9702 9702 9701 9700 9699 9699 9699 9699 9698 9697 9697 9697 9696 9696 9696 9696 9696 9697 9698 9698 9699 9699 9700 9701 9702 9703 9704 9705 9707 9708 9710
9776 9773 9770 9768 9765 9763 9761 9760 9758 9756 9753 9750 9748 9747 9745 9743 9741 9739 9737 9736 9734 9733 9732 9731 9729 9728 9727 9726 9724 9722 9721 9720 9719 9718 9716 9715 9713 9713 9712 9711 9709 9708 9706 9704 9703 9703 9703 9702 9701 9700 9700 9699 9697 9696 9695 9694 9693 9693 9692 9692 9691 9692 9691 9691 9690 9690 9689 9689 9689 9689 9689 9690 9690 9691 9691 9692 9693 9694 9695 9696 9697 9698 9699 9700 9702
9765 9762 9759 9757 9755 9753 9751 9750 9748 9745 9743 9741 9739 9738 9736 9734 9732 9730 9728 9726 9725 9724 9723 9722 9721 9720 9718 9717 9716 9715 9714 9713 9711 9710 9708 9707 9706 9706 9705 9704 9702 9700 9698 9697 9696 9695 9695 9695 9694 9693 9693 9692 9690 9689 9688 9687 9686 9686 9685 9684 9684 9684 9684 9684 9684 9683 9683 9682 9682 9682 9682 9682 9683 9683 9684 9685 9685 9686 9687 9688 9689 9690 9691 9693 9694